Weather in Phủ Lý

Vietnam     20°32′28″N   105°55′01″E
temp.,
°C
wind,
m/s
gust,
m/s
humid.,
%
clouds,
%
prec.,
mm/h
press.,
hPa
HPBL,
m
12 august, fri
fri1201:00+25nnw1098100 13.5 100531
04:00+25ese2497100 8.4 1004170
07:00+25e1498100 18.5 1006176
10:00+24sw4899100 65.4 1004432
13:00+25sse1295100 85.5 1006247
16:00+25ese2393100 0.3 1005304
19:00+24ese0197100 1.0 100618
22:00+24w1196100 0.9 100721
13 august, sat
sat1301:00+24sw1197100 1.2 100631
04:00+24sw0197100 0.2 100515
07:00+24w119550 0.2 100789
10:00+28w118296 0.0 1008617
13:00+30s227473 0.5 1005793
16:00+30sse337029 0.3 1004937
19:00+26se348697 0.3 100595
22:00+25s2490100 0.0 100691
14 august, sun
sun1401:00+26s249090 0.0 1005132
04:00+25s119184 0.0 100419
07:00+27wsw118789 0.0 100692
10:00+30w1174100 0.0 1006620
13:00+34wsw015982 0.1 10051514
16:00+34se32595 0.0 10021225
19:00+28se25855 0.2 1004143
22:00+27sse24895 1.7 100694
15 august, mon
mon1501:00+27s23906 1.8 100560
04:00+27sse22925 0.0 100432
07:00+28s128731 1.4 1005149
10:00+33ese01665 3.0 1005967
13:00+34ese226220 5.9 10031337
16:00+33ese446353 0.3 10021064
19:00+28ese378541 0.3 1003265
22:00+27se22894 0.2 100563
16 august, tue
tue1601:00+27se22925 0.9 100441
04:00+26ese11934 0.0 100317
07:00+28ene11871 0.2 1005164
10:00+31ese237217 3.1 1006948
13:00+33ese456536 6.3 10031372
16:00+32se55652 0.1 10021161
19:00+28ese26850 0.1 1004162
22:00+27ese22900 0.0 100646